Date,TemperatureHighF,TemperatureAvgF,TemperatureLowF,DewpointHighF,DewpointAvgF,DewpointLowF,HumidityHigh,HumidityAvg,HumidityLow,PressureMaxIn,PressureMinIn,WindSpeedMaxMPH,WindSpeedAvgMPH,GustSpeedMaxMPH,PrecipitationSumIn
2013-1-1,81.0,67.3,56.0,65.0,60.3,54.0,95,80,55,30.19,30.02,10,1,12,0.00
2013-1-2,82.0,67.1,55.0,70.0,62.1,54.0,97,85,64,30.07,29.98,6,0,10,0.00
2013-1-3,84.0,69.3,60.0,72.0,64.4,58.0,97,86,53,30.11,30.01,5,0,10,0.01
2013-1-4,84.0,70.8,63.0,72.0,67.2,61.0,96,89,67,30.22,30.09,3,0,5,0.03
2013-1-5,80.0,69.5,63.0,70.0,65.1,61.0,95,86,69,30.24,30.13,4,1,9,0.02
2013-1-6,86.0,70.6,62.0,73.0,66.3,60.0,97,87,59,30.17,30.03,3,0,8,0.00
2013-1-7,79.0,72.2,66.0,71.0,68.1,64.0,95,87,74,30.14,30.06,7,1,10,0.01
2013-1-8,86.0,78.6,69.0,73.0,69.6,68.0,96,75,57,30.17,30.07,3,0,10,0.00
2013-1-9,86.0,76.4,69.0,73.0,69.0,66.0,96,79,56,30.24,30.13,9,1,10,0.01
2013-1-10,86.0,73.9,65.0,70.0,66.3,62.0,95,78,47,30.26,30.14,6,1,13,0.01
2013-1-11,85.0,70.4,59.0,70.0,63.4,58.0,96,80,52,30.24,30.11,5,0,10,0.00
2013-1-12,84.0,71.0,62.0,71.0,65.1,60.0,96,83,58,30.15,30.04,5,0,10,0.01
2013-1-13,84.0,68.8,58.0,70.0,62.8,56.0,96,83,59,30.10,30.03,3,0,13,0.01
2013-1-14,83.0,68.1,57.0,67.0,61.1,55.0,96,80,54,30.15,30.08,4,0,8,0.00
2013-1-15,83.0,71.9,56.0,70.0,64.0,54.0,96,78,55,30.12,30.02,4,0,8,0.01
2013-1-16,86.0,69.6,55.0,69.0,62.4,54.0,96,80,52,30.09,29.99,4,0,10,0.01
2013-1-17,83.0,68.8,60.0,72.0,62.6,53.0,96,82,60,30.10,29.98,7,1,17,0.00
2013-1-18,68.0,59.3,50.0,57.0,51.1,42.0,92,75,59,30.27,30.10,4,1,9,0.00
2013-1-19,76.0,67.4,60.0,66.0,62.3,57.0,93,84,70,30.21,30.08,3,0,8,0.00
2013-1-20,81.0,70.0,65.0,69.0,65.2,63.0,95,86,63,30.14,30.00,3,0,8,0.00
2013-1-21,78.0,67.6,61.0,69.0,63.9,59.0,96,89,71,30.08,29.99,4,0,10,0.00
2013-1-22,73.0,63.7,55.0,61.0,54.7,47.0,95,74,54,30.23,30.03,5,0,10,0.00
2013-1-23,74.0,60.9,52.0,55.0,48.8,44.0,84,66,44,30.31,30.21,4,1,10,0.00
2013-1-24,77.0,59.7,47.0,54.0,47.3,42.0,93,69,32,30.29,30.19,3,0,6,0.00
2013-1-25,78.0,58.9,42.0,58.0,50.0,40.0,96,76,43,30.29,30.16,3,0,8,0.00
2013-1-26,81.0,60.6,44.0,56.0,49.7,42.0,95,73,32,30.25,30.14,4,0,7,0.00
2013-1-27,82.0,65.9,50.0,63.0,56.3,48.0,96,74,47,30.26,30.17,9,1,9,0.00
2013-1-28,84.0,70.4,59.0,67.0,61.2,56.0,95,75,50,30.28,30.17,5,0,10,0.00
2013-1-29,84.0,70.8,58.0,70.0,63.9,56.0,96,80,56,30.22,30.07,5,0,11,0.00
2013-1-30,83.0,71.1,61.0,69.0,65.0,59.0,95,82,57,30.09,29.95,7,1,13,0.00
2013-1-31,70.0,62.7,50.0,64.0,54.1,39.0,95,75,50,30.19,29.97,5,1,7,0.12
2013-2-1,72.0,56.0,44.0,50.0,42.3,38.0,86,63,33,30.29,30.19,6,1,14,0.01
2013-2-2,78.0,58.7,42.0,54.0,46.5,38.0,92,67,37,30.26,30.10,3,0,10,0.00
2013-2-3,76.0,59.1,47.0,53.0,45.0,34.0,92,66,23,30.19,30.06,4,0,10,0.00
2013-2-4,77.0,55.9,38.0,51.0,43.6,31.0,96,70,21,30.14,30.01,5,0,7,0.00
2013-2-5,82.0,62.5,44.0,60.0,52.1,42.0,94,72,44,30.07,29.98,4,0,9,0.00
2013-2-6,84.0,67.9,53.0,67.0,60.0,51.0,95,78,53,30.10,30.00,6,0,7,0.00
2013-2-7,84.0,68.8,56.0,67.0,61.0,54.0,96,79,48,30.06,29.92,5,1,10,0.00
2013-2-8,84.0,72.7,63.0,71.0,65.3,60.0,95,79,50,30.04,29.88,6,1,10,0.00
2013-2-9,81.0,68.0,56.0,66.0,60.6,54.0,96,79,52,30.14,30.03,3,0,8,0.01
2013-2-10,84.0,71.5,59.0,66.0,62.0,56.0,91,73,49,30.21,30.11,6,1,10,0.01
2013-2-11,85.0,70.0,57.0,69.0,63.3,55.0,96,81,56,30.18,30.07,5,1,9,0.00
2013-2-12,84.0,70.2,58.0,72.0,64.9,56.0,96,84,65,30.10,29.95,7,1,10,0.00
2013-2-13,86.0,75.1,62.0,74.0,69.5,60.0,96,84,62,29.99,29.90,8,1,13,0.01
2013-2-14,82.0,66.2,60.0,73.0,63.6,58.0,96,92,75,30.02,29.86,5,1,10,1.60
2013-2-15,68.0,63.3,60.0,65.0,61.4,58.0,95,94,88,30.04,29.93,2,0,3,0.40
2013-2-16,70.0,63.0,54.0,62.0,55.5,49.0,96,78,56,30.09,29.90,12,2,17,0.01
2013-2-17,61.0,50.8,36.0,49.0,33.6,26.0,89,55,29,30.32,30.09,7,1,11,0.00
2013-2-18,73.0,52.6,33.0,52.0,42.0,31.0,94,71,42,30.31,30.19,5,1,12,0.00
2013-2-19,83.0,63.3,47.0,66.0,56.5,45.0,96,81,56,30.20,30.07,6,0,9,0.00
2013-2-20,84.0,66.5,52.0,66.0,57.7,51.0,96,77,42,30.10,29.98,6,0,8,0.00
2013-2-21,86.0,69.6,57.0,70.0,62.4,55.0,96,80,52,30.07,29.97,4,0,7,0.00
2013-2-22,88.0,71.0,58.0,72.0,64.7,56.0,96,82,57,30.07,29.97,8,1,9,0.00
2013-2-23,86.0,74.0,62.0,74.0,69.3,60.0,96,86,66,30.02,29.90,7,1,11,0.00
2013-2-24,89.0,75.8,67.0,74.0,69.4,65.0,96,83,53,29.97,29.89,5,1,11,0.01
2013-2-25,86.0,72.9,62.0,75.0,68.2,61.0,96,86,63,29.90,29.78,3,0,10,0.01
2013-2-26,85.0,76.9,70.0,75.0,71.8,67.0,95,85,71,29.89,29.75,11,1,15,0.01
2013-2-27,74.0,67.6,64.0,67.0,64.2,62.0,95,89,70,29.97,29.86,1,0,8,0.11
2013-2-28,75.0,64.5,59.0,63.0,58.2,55.0,95,81,52,30.02,29.91,6,0,10,0.01
2013-3-1,68.0,62.0,58.0,59.0,53.8,50.0,91,75,56,30.00,29.91,3,0,9,0.00
2013-3-2,61.0,55.9,52.0,50.0,45.7,43.0,84,69,53,30.03,29.98,5,0,10,0.01
2013-3-3,64.0,52.6,44.0,49.0,46.5,41.0,94,81,52,30.14,29.97,8,1,13,0.14
2013-3-4,71.0,51.8,35.0,49.0,41.8,33.0,95,73,35,30.22,30.11,3,0,7,0.01
2013-3-5,79.0,57.0,37.0,58.0,48.4,35.0,96,77,46,30.16,30.08,5,1,11,0.00
2013-3-6,74.0,59.3,48.0,65.0,51.0,43.0,96,77,42,30.12,30.01,7,1,16,0.04
2013-3-7,69.0,54.2,43.0,48.0,42.5,37.0,91,67,36,30.21,30.09,6,1,10,0.01
2013-3-8,78.0,57.9,39.0,52.0,46.4,37.0,95,71,32,30.20,30.09,5,0,7,0.00
2013-3-9,78.0,61.3,42.0,56.0,48.6,40.0,96,68,32,30.19,30.09,3,0,10,0.00
2013-3-10,81.0,65.8,50.0,59.0,54.6,48.0,95,70,45,30.15,30.02,6,1,11,0.00
2013-3-11,82.0,67.8,53.0,64.0,58.9,51.0,96,75,53,30.09,29.92,6,1,12,0.00
2013-3-12,77.0,67.9,60.0,70.0,63.7,57.0,95,87,79,30.02,29.88,6,1,11,0.00
2013-3-13,79.0,63.3,50.0,57.0,49.7,40.0,94,66,26,30.15,30.01,5,1,10,0.00
2013-3-14,75.0,59.3,47.0,51.0,42.4,30.0,89,59,19,30.23,30.11,6,1,12,0.00
2013-3-15,76.0,57.6,43.0,49.0,41.5,32.0,92,63,22,30.27,30.13,4,0,11,0.00
2013-3-16,80.0,59.8,41.0,56.0,47.6,39.0,96,69,32,30.18,30.07,6,1,10,0.00
2013-3-17,82.0,64.0,47.0,63.0,55.0,45.0,95,75,49,30.12,29.99,6,0,9,0.00
2013-3-18,81.0,68.1,57.0,70.0,64.0,54.0,95,87,68,30.04,29.94,6,1,10,0.38
2013-3-19,82.0,70.5,63.0,70.0,66.0,60.0,95,86,66,30.01,29.84,5,0,10,0.10
2013-3-20,87.0,67.6,57.0,67.0,60.8,56.0,96,81,40,29.99,29.82,5,1,10,0.11
2013-3-21,78.0,65.5,51.0,63.0,54.9,47.0,95,72,35,29.95,29.83,4,1,10,0.11
2013-3-22,84.0,65.0,47.0,72.0,59.4,45.0,95,83,65,29.96,29.87,8,1,10,0.01
2013-3-23,88.0,76.9,68.0,74.0,69.4,65.0,96,80,55,29.94,29.80,6,1,13,0.00
2013-3-24,84.0,75.4,65.0,75.0,70.8,63.0,96,86,71,29.86,29.69,9,2,19,0.02
2013-3-25,81.0,72.0,60.0,74.0,57.9,33.0,93,65,29,30.02,29.74,9,1,11,0.01
2013-3-26,68.0,58.4,50.0,48.0,43.2,38.0,82,58,36,30.23,30.02,10,2,15,0.00
2013-3-27,69.0,54.4,43.0,47.0,40.0,34.0,82,61,30,30.29,30.18,8,1,11,0.00
2013-3-28,75.0,57.2,40.0,50.0,40.7,31.0,91,61,20,30.28,30.15,6,1,10,0.00
2013-3-29,79.0,60.0,40.0,51.0,43.8,38.0,95,62,27,30.29,30.17,4,0,10,0.00
2013-3-30,81.0,63.3,48.0,58.0,52.1,45.0,95,70,40,30.24,30.11,6,1,10,0.00
2013-3-31,84.0,67.3,50.0,64.0,56.6,-99.9,96,74,47,30.19,30.01,9,1,10,0.00
2013-4-1,86.0,71.2,58.0,70.0,64.0,56.0,96,80,51,30.04,29.96,9,1,14,0.00
2013-4-2,87.0,72.9,61.0,69.0,64.8,59.0,96,78,49,30.08,29.99,3,1,10,0.00
2013-4-3,90.0,74.7,62.0,71.0,66.1,60.0,95,77,49,30.06,29.93,5,1,12,0.00
2013-4-4,84.0,71.7,66.0,74.0,67.6,63.0,94,87,71,30.02,29.87,5,1,11,0.60
2013-4-5,72.0,67.6,61.0,69.0,64.6,57.0,95,90,79,30.00,29.80,3,1,12,0.76
2013-4-6,79.0,67.1,59.0,64.0,59.3,56.0,93,78,53,30.08,29.94,6,1,8,0.01
2013-4-7,86.0,70.6,57.0,67.0,61.1,55.0,95,75,44,30.11,30.01,4,0,10,0.00
2013-4-8,87.0,74.1,60.0,68.0,62.4,57.0,94,69,43,30.10,30.00,7,1,8,0.00
2013-4-9,88.0,73.1,58.0,69.0,63.3,56.0,95,73,47,30.11,30.03,6,1,9,0.00
2013-4-10,88.0,73.2,63.0,74.0,68.1,61.0,95,85,60,30.09,29.94,8,1,11,0.72
2013-4-11,86.0,76.9,70.0,76.0,71.5,68.0,95,84,67,29.98,29.84,6,1,14,0.18
2013-4-12,90.0,79.7,74.0,76.0,73.1,71.0,95,82,57,29.93,29.85,10,1,10,0.02
2013-4-13,91.0,80.4,72.0,74.0,71.6,68.0,92,76,55,29.96,29.83,3,0,9,0.01
2013-4-14,90.0,78.3,67.0,77.0,71.3,65.0,95,80,59,29.95,29.83,6,1,10,0.00
2013-4-15,94.0,79.5,67.0,77.0,71.0,64.0,93,77,53,30.05,29.91,8,1,9,0.01
2013-4-16,92.0,79.0,68.0,75.0,70.7,66.0,94,78,51,30.10,29.99,6,1,10,0.01
2013-4-17,88.0,77.7,69.0,73.0,69.1,66.0,93,76,55,30.10,29.98,6,1,10,0.00
2013-4-18,91.0,78.9,68.0,75.0,69.5,65.0,91,74,52,30.03,29.92,6,1,8,0.00
2013-4-19,92.0,79.6,70.0,75.0,71.5,67.0,94,78,54,30.01,29.92,4,1,12,0.01
2013-4-20,92.0,78.4,67.0,77.0,70.7,65.0,95,79,52,30.08,29.93,4,1,10,0.01
2013-4-21,89.0,72.8,67.0,74.0,68.6,65.0,93,87,60,30.09,29.96,3,0,12,0.32
2013-4-22,87.0,74.6,68.0,74.0,69.4,66.0,94,85,58,30.05,29.91,4,0,10,0.08
2013-4-23,87.0,75.2,66.0,70.0,66.4,63.0,93,76,50,30.07,29.96,6,1,11,0.01
2013-4-24,88.0,74.0,59.0,69.0,64.0,57.0,95,73,47,30.11,30.03,4,1,9,0.01
2013-4-25,89.0,74.4,61.0,67.0,61.5,55.0,95,69,34,30.18,30.06,5,1,10,0.00
2013-4-26,88.0,74.9,59.0,66.0,62.9,57.0,93,69,48,30.21,30.11,5,1,11,0.00
2013-4-27,88.0,74.3,60.0,66.0,62.2,58.0,95,69,44,30.19,30.04,7,1,10,0.00
2013-4-28,89.0,75.4,64.0,71.0,64.5,-99.9,91,74,46,30.09,29.95,7,1,10,0.00
2013-4-29,90.0,72.4,62.0,72.0,66.1,59.0,93,82,51,30.01,29.91,3,0,8,0.32
2013-4-30,88.0,75.2,65.0,75.0,68.9,63.0,95,82,59,29.97,29.89,7,0,10,0.02
2013-5-1,83.0,71.6,66.0,75.0,68.5,64.0,94,90,76,29.96,29.88,6,0,11,0.26
2013-5-2,72.0,69.6,66.0,70.0,67.7,64.0,95,94,88,29.94,29.79,3,0,5,0.74
2013-5-3,86.0,73.8,62.0,72.0,67.2,61.0,96,81,57,29.84,29.69,4,1,10,0.72
2013-5-4,84.0,74.2,65.0,72.0,67.2,63.0,95,80,64,29.81,29.69,10,2,16,2.75
2013-5-5,83.0,73.5,65.0,67.0,61.6,57.0,87,68,44,29.95,29.78,8,2,16,9.74
2013-5-6,82.0,68.4,54.0,68.0,60.6,52.0,94,78,59,30.00,29.93,9,1,10,0.00
2013-5-7,82.0,69.3,56.0,65.0,60.6,54.0,94,76,53,30.06,29.97,8,1,12,0.00
2013-5-8,85.0,69.7,55.0,66.0,59.9,53.0,95,74,45,30.12,30.04,5,0,9,0.00
2013-5-9,92.0,71.1,53.0,67.0,60.4,51.0,95,73,40,30.12,30.06,3,0,9,0.00
2013-5-10,93.0,75.7,62.0,74.0,65.1,-99.9,93,75,48,30.11,29.98,4,1,10,0.00
2013-5-11,92.0,78.2,66.0,75.0,70.7,64.0,94,79,56,30.04,29.98,6,1,10,0.00
2013-5-12,88.0,77.6,69.0,77.0,71.0,-99.9,95,83,66,30.04,29.91,6,1,13,0.00
2013-5-13,89.0,77.6,66.0,73.0,68.9,61.0,95,76,55,30.09,29.99,10,1,11,0.00
2013-5-14,87.0,75.1,62.0,64.0,58.4,54.0,84,58,37,30.16,30.07,5,1,10,0.00
2013-5-15,87.0,72.9,56.0,64.0,59.9,54.0,93,67,44,30.16,30.05,5,1,10,0.00
2013-5-16,87.0,69.4,61.0,66.0,41.1,-99.9,92,68,42,30.09,29.98,5,0,10,0.00
2013-5-17,92.0,76.6,62.0,69.0,59.2,-99.9,92,67,40,30.06,30.00,5,1,10,0.00
2013-5-18,92.0,76.6,63.0,77.0,69.2,61.0,94,79,51,30.08,30.00,7,1,10,0.24
2013-5-19,91.0,78.0,68.0,75.0,70.4,66.0,94,79,49,30.08,29.95,5,0,9,0.49
2013-5-20,92.0,76.9,70.0,77.0,71.2,68.0,95,84,53,30.05,29.95,7,0,14,1.46
2013-5-21,88.0,75.5,68.0,76.0,70.6,66.0,95,86,62,30.00,29.88,3,0,10,0.17
2013-5-22,90.0,78.1,67.0,76.0,70.7,65.0,95,80,59,29.94,29.86,5,1,11,0.04
2013-5-23,90.0,78.8,67.0,74.0,70.3,65.0,93,77,55,30.01,29.90,5,1,8,0.00
2013-5-24,95.0,80.3,69.0,76.0,70.5,65.0,93,74,43,30.06,29.95,4,1,11,0.00
2013-5-25,92.0,78.1,65.0,75.0,67.4,62.0,92,72,47,30.14,30.02,7,1,11,0.00
2013-5-26,88.0,77.5,66.0,69.0,66.2,62.0,88,69,49,30.15,30.06,5,1,10,0.00
2013-5-27,86.0,76.4,65.0,74.0,68.2,62.0,90,77,62,30.14,30.00,8,1,11,0.01
2013-5-28,86.0,76.8,72.0,76.0,71.6,69.0,90,84,65,30.09,30.01,7,1,14,0.17
2013-5-29,82.0,74.6,71.0,75.0,70.9,68.0,92,88,76,30.07,29.98,4,1,10,0.49
2013-5-30,87.0,76.7,70.0,77.0,71.8,67.0,92,85,70,30.03,29.94,5,1,12,0.27
2013-5-31,88.0,77.3,72.0,77.0,72.8,69.0,92,86,66,30.02,29.97,3,0,8,0.76
2013-6-1,89.0,78.2,74.0,78.0,73.6,71.0,92,86,65,30.02,29.93,3,0,8,0.40
2013-6-2,92.0,79.8,71.0,78.0,71.9,-99.9,92,81,58,30.00,29.91,6,1,9,0.02
2013-6-3,83.0,77.9,73.0,76.0,73.3,70.0,91,86,77,29.99,29.90,4,0,6,0.01
2013-6-4,81.0,76.1,72.0,76.0,72.7,69.0,92,89,84,30.02,29.94,3,0,5,0.68
2013-6-5,79.0,77.1,74.0,76.0,74.0,71.0,92,90,88,29.99,29.84,4,0,8,0.38
2013-6-6,84.0,76.6,73.0,79.0,73.1,70.0,92,89,76,29.86,29.74,7,1,18,2.07
2013-6-7,87.0,80.8,74.0,79.0,74.9,71.0,90,83,67,29.97,29.89,6,1,12,0.85
2013-6-8,92.0,81.7,74.0,80.0,75.1,71.0,91,81,58,30.08,29.95,3,0,10,0.01
2013-6-9,94.0,83.1,75.0,77.0,74.0,71.0,91,76,51,30.08,29.98,4,0,10,0.01
2013-6-10,94.0,82.7,74.0,79.0,75.1,71.0,91,79,55,30.06,29.97,4,1,9,0.00
2013-6-11,96.0,79.8,70.0,79.0,73.5,66.0,91,82,55,30.06,29.97,10,0,15,1.86
2013-6-12,95.0,78.0,72.0,79.0,73.0,69.0,93,86,52,30.05,29.97,1,0,6,1.32
2013-6-13,93.0,77.3,68.0,78.0,72.0,66.0,93,85,53,30.04,29.93,5,0,9,0.06
2013-6-14,91.0,80.4,70.0,78.0,73.1,67.0,92,79,61,29.96,29.88,5,1,11,0.01
2013-6-15,94.0,81.4,70.0,79.0,73.5,67.0,92,78,54,30.02,29.93,4,0,9,0.01
2013-6-16,94.0,82.9,73.0,79.0,75.2,70.0,90,79,54,30.07,29.98,5,1,7,0.18
2013-6-17,96.0,80.7,73.0,79.0,74.1,70.0,92,82,50,30.08,29.98,7,0,11,0.70
2013-6-18,96.0,81.0,72.0,79.0,74.3,69.0,93,82,52,30.05,29.96,3,0,10,0.78
2013-6-19,96.0,79.7,73.0,82.0,73.7,69.0,91,83,55,30.04,29.95,7,0,10,0.34
2013-6-20,92.0,79.7,72.0,79.0,72.9,69.0,91,81,57,30.06,30.00,8,0,8,0.04
2013-6-22,94.0,87.0,80.0,78.0,74.6,72.0,86,68,49,30.08,30.00,3,1,7,0.02
2013-6-23,92.0,79.7,71.0,78.0,73.3,68.0,91,81,59,30.11,30.03,3,0,9,0.01
2013-6-24,92.0,80.2,72.0,78.0,73.3,69.0,92,80,56,30.13,30.05,6,0,11,0.00
2013-6-25,92.0,79.3,71.0,78.0,72.6,68.0,91,81,59,30.11,30.00,5,0,17,2.00
2013-6-26,90.0,79.1,73.0,79.0,73.5,69.0,89,83,68,30.06,30.01,5,0,15,0.07
2013-6-27,92.0,76.5,71.0,79.0,71.0,67.0,89,84,58,30.03,29.94,4,0,8,0.47
2013-6-28,90.0,77.5,71.0,79.0,71.9,67.0,90,83,67,29.98,29.90,2,0,3,1.08
2013-6-29,92.0,85.5,75.0,78.0,75.5,71.0,88,73,59,29.88,29.82,7,1,11,0.10
2013-6-30,90.0,79.6,75.0,79.0,74.2,71.0,88,84,70,29.91,29.82,5,1,14,0.56
2013-7-1,87.0,77.1,71.0,79.0,72.3,67.0,89,85,73,30.01,29.92,3,0,11,3.08
2013-7-2,90.0,77.7,73.0,79.0,72.5,69.0,88,84,70,30.08,29.94,5,0,11,0.22
2013-7-3,88.0,76.3,73.0,78.0,71.7,69.0,88,86,71,30.10,30.02,3,0,9,0.01
2013-7-4,91.0,79.7,71.0,79.0,73.7,67.0,89,82,60,30.12,30.03,6,0,12,0.47
2013-7-5,88.0,77.7,74.0,78.0,72.5,70.0,88,84,69,30.12,30.02,9,1,11,0.12
2013-7-6,92.0,80.6,74.0,78.0,73.3,70.0,89,79,56,30.10,29.98,5,0,11,0.11
2013-7-7,92.0,81.2,75.0,77.0,74.2,71.0,87,80,59,30.08,29.99,5,1,11,0.19
2013-7-8,93.0,79.0,71.0,77.0,70.2,-99.9,89,78,49,30.12,30.04,5,0,10,0.02
2013-7-9,88.0,77.9,72.0,76.0,72.3,68.0,88,83,62,30.12,30.03,4,0,12,0.30
2013-7-10,90.0,77.0,70.0,76.0,68.9,-99.9,89,80,60,30.07,29.98,3,0,10,0.02
2013-7-11,90.0,79.6,71.0,78.0,73.0,67.0,88,81,65,30.02,29.92,4,0,7,0.26
2013-7-12,89.0,78.6,72.0,78.0,72.5,68.0,88,82,67,29.96,29.88,4,0,10,0.05
2013-7-13,88.0,75.9,71.0,78.0,71.2,67.0,89,85,72,29.98,29.90,4,0,12,1.17
2013-7-14,84.0,75.5,73.0,77.0,71.1,69.0,88,86,77,30.07,29.95,6,0,15,0.32
2013-7-15,91.0,77.4,72.0,77.0,71.6,68.0,88,83,58,30.06,29.98,3,0,8,0.06
2013-7-16,86.0,78.3,72.0,76.0,71.5,68.0,88,80,65,30.10,30.02,7,1,16,0.08
2013-7-17,86.0,78.8,73.0,75.0,71.8,69.0,88,80,66,30.10,30.00,5,1,14,0.03
2013-7-18,82.0,73.9,71.0,76.0,69.6,67.0,88,87,82,30.11,30.03,1,0,7,0.92
2013-7-19,91.0,79.3,70.0,80.0,72.7,66.0,89,81,61,30.10,30.01,3,0,7,0.01
2013-7-20,78.0,74.8,74.0,74.0,69.4,-99.9,87,85,81,30.10,30.01,2,0,3,0.04
2013-7-21,91.0,80.5,74.0,81.0,74.8,70.0,89,83,68,30.13,30.02,3,0,6,0.11
2013-7-22,94.0,81.0,72.0,80.0,74.3,68.0,88,81,60,30.13,30.06,3,0,8,0.08
2013-7-23,94.0,81.5,72.0,78.0,73.6,68.0,88,78,57,30.09,29.97,2,0,9,0.00
2013-7-24,91.0,81.8,71.0,77.0,72.9,67.0,87,75,58,30.02,29.92,8,1,10,0.00
2013-7-25,92.0,80.9,71.0,79.0,73.6,67.0,87,79,64,30.01,29.91,6,1,11,0.00
2013-7-26,94.0,83.7,77.0,79.0,75.8,72.0,87,78,59,30.03,29.95,6,1,11,0.01
2013-7-27,95.0,82.7,75.0,78.0,74.9,71.0,88,78,58,29.99,29.92,5,1,12,0.01
2013-7-28,95.0,82.1,71.0,77.0,72.7,67.0,88,75,52,30.05,29.93,6,0,10,0.00
2013-7-29,94.0,78.7,72.0,79.0,72.2,68.0,87,81,58,30.09,30.01,4,0,10,1.04
2013-7-30,92.0,83.1,75.0,81.0,76.3,71.0,87,80,66,30.14,30.05,5,0,11,0.08
2013-7-31,92.0,79.5,72.0,79.0,73.1,68.0,88,81,63,30.10,30.02,5,0,11,0.51
2013-8-1,74.0,73.9,73.0,70.0,69.9,69.0,86,86,86,29.98,29.96,0,0,2,9.74
2013-8-2,94.0,80.8,70.0,79.0,73.2,66.0,89,79,54,30.03,29.92,0,0,1,9.74
2013-8-3,91.0,79.0,75.0,79.0,74.0,71.0,87,85,68,30.11,30.00,0,0,1,1.25
2013-8-4,93.0,82.6,75.0,81.0,76.0,71.0,87,81,65,30.09,30.00,8,1,10,0.03
2013-8-5,93.0,83.1,75.0,81.0,75.9,71.0,87,80,64,30.04,29.93,6,1,10,0.01
2013-8-6,94.0,82.4,75.0,79.0,75.3,71.0,87,80,56,29.98,29.89,5,0,8,0.02
2013-8-7,92.0,79.3,73.0,80.0,73.5,69.0,87,83,64,29.94,29.88,3,0,10,0.05
2013-8-8,95.0,81.7,74.0,79.0,73.7,70.0,87,77,50,30.00,29.88,4,0,9,0.01
2013-8-9,90.0,78.3,72.0,78.0,72.5,68.0,87,82,64,30.03,29.93,0,0,9,0.11
2013-8-10,94.0,82.4,72.0,79.0,73.2,68.0,88,75,53,30.09,30.00,5,0,10,0.06
2013-8-11,96.0,83.6,74.0,79.0,74.1,70.0,87,75,49,30.11,30.01,5,1,10,0.01
2013-8-12,95.0,80.8,70.0,78.0,72.1,66.0,87,76,50,30.10,29.97,4,0,10,0.00
2013-8-20,90.0,78.3,72.0,79.0,71.2,-99.9,89,83,66,30.04,29.96,3,0,6,0.08
2013-8-21,91.0,80.2,76.0,82.0,74.6,72.0,87,83,70,30.04,29.95,2,0,9,0.32
2013-8-22,94.0,80.2,74.0,80.0,73.7,69.0,87,81,59,30.04,29.93,2,0,8,0.52
2013-8-23,90.0,77.3,73.0,80.0,72.5,69.0,88,85,70,30.01,29.92,0,0,7,1.07
2013-8-24,94.0,79.1,72.0,80.0,72.5,68.0,88,81,55,30.10,29.96,4,0,10,1.53
2013-8-25,88.0,78.1,74.0,78.0,71.1,-99.9,86,82,72,30.11,30.00,6,0,7,0.05
2013-8-26,90.0,78.2,71.0,80.0,72.3,67.0,87,82,64,30.09,29.98,2,0,8,0.47
2013-8-27,89.0,77.4,69.0,77.0,70.7,65.0,88,80,63,30.03,29.97,3,0,6,0.50
2013-8-31,92.0,80.5,71.0,79.0,72.7,66.0,87,78,59,29.97,29.89,3,1,9,0.02
2013-9-1,93.0,79.0,73.0,79.0,70.6,-99.9,87,78,61,29.98,29.91,5,0,7,0.01
2013-9-2,89.0,75.7,72.0,80.0,70.5,67.0,86,84,73,30.02,29.93,0,0,3,1.29
2013-9-3,94.0,78.7,70.0,78.0,72.0,66.0,88,81,56,30.01,29.92,0,0,1,8.81
2013-9-4,90.0,77.4,73.0,79.0,71.9,68.0,86,84,70,30.04,29.93,0,0,1,1.08
2013-9-5,92.0,81.3,75.0,79.0,74.2,70.0,85,80,61,30.05,29.97,1,0,1,0.00
2013-9-6,93.0,82.8,72.0,80.0,74.5,67.0,86,77,58,30.05,29.88,4,0,6,2.01
2013-9-20,90.0,79.8,73.0,75.0,71.1,68.0,86,76,57,29.99,29.87,3,0,9,0.01
2013-9-21,90.0,78.5,68.0,76.0,70.8,64.0,86,78,57,29.91,29.76,3,0,8,0.01
2013-9-22,91.0,78.7,70.0,78.0,70.1,-99.9,87,78,62,29.85,29.76,3,1,9,0.00
2013-9-23,86.0,79.1,74.0,79.0,73.8,69.0,86,84,79,29.95,29.83,3,0,5,0.21
2013-9-24,88.0,78.1,73.0,79.0,72.5,68.0,86,83,74,29.95,29.88,7,1,13,0.23
2013-9-25,88.0,76.6,72.0,78.0,71.4,67.0,86,84,72,29.90,29.78,1,0,7,0.10
2013-9-26,88.0,78.9,73.0,81.0,73.5,68.0,87,84,75,29.86,29.80,4,1,12,0.42
2013-9-27,90.0,79.0,71.0,75.0,70.3,66.0,86,76,56,29.91,29.83,2,0,7,0.05
2013-9-28,90.0,79.3,69.0,76.0,70.8,64.0,86,76,55,29.95,29.85,3,0,7,0.01
2013-9-29,90.0,77.2,70.0,76.0,68.5,-99.9,86,78,59,29.95,29.85,4,0,7,0.01
2013-9-30,92.0,77.2,67.0,77.0,69.6,62.0,87,79,53,29.98,29.87,2,0,6,0.67
2013-10-1,80.0,77.2,71.0,72.0,70.7,66.0,85,81,77,30.01,29.97,1,0,5,0.01
2013-10-2,90.0,79.3,73.0,78.0,72.8,69.0,86,81,66,30.01,29.92,7,1,10,0.00
2013-10-3,90.0,77.3,73.0,78.0,71.9,68.0,87,83,67,30.02,29.92,4,0,5,1.97
2013-10-4,89.0,79.5,72.0,77.0,72.4,67.0,86,79,62,30.04,29.96,2,0,6,0.02
2013-10-5,90.0,78.8,70.0,73.0,70.2,65.0,86,76,52,30.03,29.90,3,0,5,0.00
2013-10-6,91.0,79.4,69.0,76.0,71.2,64.0,86,77,59,29.96,29.86,3,0,7,0.00
2013-10-7,88.0,79.0,71.0,78.0,72.5,66.0,86,81,71,29.88,29.80,6,1,13,0.01
2013-10-8,89.0,77.7,69.0,76.0,70.3,64.0,86,79,63,29.93,29.83,4,0,9,0.01
2013-10-9,88.0,77.2,69.0,75.0,70.3,64.0,86,80,63,29.99,29.90,4,0,7,0.00
2013-10-10,88.0,77.4,68.0,74.0,69.1,63.0,86,77,56,30.01,29.92,2,0,7,0.00
2013-10-13,87.0,75.0,67.0,73.0,64.8,-99.9,86,74,53,30.04,29.94,1,0,6,0.00
2013-10-14,88.0,73.8,64.0,70.0,65.1,60.0,87,76,49,30.01,29.89,3,0,7,0.00
2013-10-15,90.0,77.7,66.0,73.0,66.9,62.0,86,72,46,29.96,29.85,3,0,6,0.00
2013-10-16,90.0,76.0,64.0,73.0,67.3,60.0,87,76,50,29.94,29.86,5,0,9,0.00
2013-10-17,92.0,77.7,66.0,74.0,69.4,61.0,87,77,54,29.96,29.87,3,0,6,0.00
2013-10-18,91.0,77.6,66.0,75.0,69.6,62.0,87,77,54,29.96,29.87,4,0,7,0.00
2013-10-19,92.0,79.2,68.0,77.0,71.6,63.0,86,78,57,29.94,29.84,3,0,8,0.00
2013-10-20,94.0,79.6,71.0,78.0,69.9,-99.9,86,75,57,29.93,29.85,3,0,6,0.00
2013-10-21,90.0,78.2,69.0,79.0,71.8,64.0,86,81,69,29.98,29.89,3,0,9,0.00
2013-10-22,92.0,79.7,70.0,78.0,72.2,65.0,86,79,62,29.95,29.83,7,1,10,0.03
2013-10-23,87.0,77.6,70.0,77.0,69.5,61.0,87,77,64,29.96,29.81,3,0,7,0.03
2013-10-24,76.0,71.3,68.0,65.0,61.2,57.0,81,71,64,30.10,29.95,4,0,9,0.00
2013-10-25,83.0,74.3,67.0,66.0,64.2,62.0,86,72,55,30.17,30.08,7,1,10,0.00
2013-10-26,86.0,71.4,63.0,67.0,61.8,58.0,87,74,47,30.15,30.04,3,0,9,0.00
2013-10-27,85.0,70.7,59.0,65.0,58.7,-99.9,88,70,43,30.09,30.00,3,0,8,0.00
2013-10-28,87.0,69.6,59.0,69.0,60.1,-99.9,87,76,48,30.14,30.05,4,0,9,0.00
2013-10-29,87.0,73.4,62.0,71.0,64.7,58.0,87,75,55,30.17,30.06,7,0,10,0.00
2013-10-30,87.0,73.2,63.0,70.0,64.0,59.0,87,74,48,30.16,30.04,7,0,11,0.00
2013-10-31,90.0,73.0,61.0,72.0,64.1,57.0,87,76,46,30.10,29.95,7,0,7,0.00
2013-11-1,90.0,74.2,63.0,75.0,66.3,59.0,87,78,52,30.00,29.88,5,0,10,0.00
2013-11-2,88.0,74.6,65.0,75.0,67.3,61.0,88,79,61,29.94,29.82,3,0,10,0.00
2013-11-3,83.0,71.7,65.0,65.0,54.9,-99.9,83,59,37,30.04,29.92,4,1,13,0.00
2013-11-4,82.0,71.1,62.0,68.0,61.1,55.0,83,71,55,30.08,30.01,12,1,15,0.00
2013-11-5,85.0,75.5,68.0,71.0,67.8,64.0,87,78,59,30.05,29.99,4,1,20,0.00
2013-11-6,88.0,77.8,68.0,73.0,69.2,64.0,87,76,60,30.04,29.95,6,1,11,0.00
2013-11-7,69.0,67.2,66.0,65.0,63.0,62.0,87,86,85,30.00,29.95,0,0,1,0.00
2013-11-9,79.0,72.6,72.0,73.0,65.4,-99.9,87,83,81,30.09,30.03,4,0,7,0.00
2013-11-10,87.0,77.0,72.0,72.0,69.3,67.0,87,78,61,30.11,30.01,4,1,10,0.00
2013-11-11,72.0,69.3,67.0,68.0,65.2,63.0,87,86,85,30.09,30.05,2,0,5,0.00
2013-12-2,78.0,68.3,62.0,66.0,62.2,58.0,87,81,65,29.96,29.82,4,0,6,0.00
2013-12-3,82.0,67.6,58.0,68.0,61.3,54.0,87,81,61,29.98,29.89,3,0,7,0.00
2013-12-4,83.0,70.4,59.0,71.0,63.2,55.0,88,79,62,30.06,29.96,3,0,7,0.00
2013-12-5,85.0,70.9,60.0,71.0,63.6,56.0,87,79,58,30.14,30.04,3,0,10,0.00
2013-12-6,87.0,72.2,62.0,73.0,65.5,58.0,87,80,57,30.16,30.06,4,0,7,0.00
2013-12-7,87.0,73.7,58.0,71.0,64.2,-99.9,88,76,55,30.20,30.10,3,0,5,0.00
2013-12-8,86.0,73.8,63.0,70.0,65.4,59.0,87,76,54,30.17,30.07,3,0,8,0.00
2013-12-9,87.0,73.0,63.0,73.0,64.7,59.0,87,77,50,30.15,30.06,4,1,10,0.00
2013-12-10,89.0,71.9,61.0,73.0,64.3,57.0,87,78,55,30.14,30.05,2,0,6,0.00
2013-12-11,86.0,73.3,65.0,72.0,66.7,61.0,87,81,62,30.20,30.09,3,0,6,0.00
2013-12-12,73.0,67.7,59.0,68.0,62.1,49.0,87,83,65,30.23,30.13,6,1,9,0.00
2013-12-13,81.0,67.7,54.0,66.0,59.0,49.0,87,74,59,30.21,30.06,7,1,10,0.00
2013-12-14,86.0,73.5,64.0,73.0,65.3,-99.9,87,79,61,30.09,29.95,4,1,9,0.00
2013-12-15,80.0,73.1,68.0,73.0,68.2,63.0,87,85,79,30.07,29.91,4,0,5,0.09